Weather History for Ouarzazate, Morocco

Change the Weather History Date:

Saturday, February 15, 2014

  Actual Average Record
Temperature  
Mean Temperature 54 °F -  
Max Temperature 67 °F 70 °F - ()
Min Temperature 41 °F 42 °F - ()
Degree Days  
Heating Degree Days 11    
Growing Degree Days 4 (Base 50)    
Moisture  
Dew Point 19 °F    
Average Humidity 21    
Maximum Humidity 62    
Minimum Humidity 7    
Precipitation  
Precipitation 0.00 in 0.01 in - ()
Sea Level Pressure  
Sea Level Pressure 29.97 in    
Wind  
Wind Speed 4 mph ()    
Max Wind Speed 14 mph    
Max Gust Speed -    
Visibility 6.4 miles    
Events      
T = Trace of Precipitation, MM = Missing Value Source: Averaged Metar Reports

Daily Weather History Graph

Daily Weather History Graph

Search for Another Location

Airport:

Trip Planner

Search our weather history database for the weather conditions in past years. The results will help you decide how hot, cold, wet, or windy it might be!

Date:

Astronomy

Feb. 15, 2014 Rise Set
Actual Time 7:08 AM WET 6:15 PM WET
Civil Twilight 6:44 AM WET 6:39 PM WET
Nautical Twilight 6:15 AM WET 7:08 PM WET
Astronomical Twilight 5:47 AM WET 7:36 PM WET
Moon 6:55 PM WET (2/15) 7:05 AM WET (2/15)
Length of Visible Light 11h 55m
Length of Day
11h 06m
Full, 100% of the Moon is Illuminated
Feb 15
Full
Feb 22
Last Quarter
Mar 1
New
Mar 8
First Quarter
Mar 16
Full

Hourly Weather History & Observations

Time (WET) Temp. Windchill Dew Point Humidity Pressure Visibility Wind Dir Wind Speed Gust Speed Precip Events Conditions
12:00 AM 59 °F - 13 °F 7%  in 5 mi SSW 4.6 mph - -  
12:00 AM 59.0 °F - 14.0 °F 17% 30.12 in 5.0 mi SSW 4.6 mph - N/A   Unknown
1:00 AM 55.4 °F - 14.0 °F 20% 30.09 in 5.0 mi Variable 2.3 mph - N/A   Unknown
2:00 AM 51.8 °F - 12.2 °F 21% 30.06 in 3.7 mi Variable 3.5 mph - N/A   Unknown
3:00 AM 46 °F - 16 °F 18%  in 5 mi West 1.2 mph - -  
3:00 AM 46.4 °F - 15.8 °F 29% 30.04 in 5.0 mi Variable 1.2 mph - N/A   Unknown
4:00 AM 44.6 °F 43.1 °F 12.2 °F 27% 30.04 in 5.0 mi Variable 3.5 mph - N/A   Unknown
5:00 AM 48.2 °F - 35.6 °F 62% 30.01 in 3.7 mi Variable 2.3 mph - N/A   Unknown
6:00 AM 44 °F - 14 °F 17%  in 6 mi Calm Calm - -  
6:00 AM - - - N/A% 30.04 in - Calm Calm - N/A   Clear
7:00 AM 41.0 °F - 12.2 °F 31% 30.04 in - Calm Calm - N/A   Clear
8:00 AM 41.0 °F - 12.2 °F 31% 30.04 in - Calm Calm - N/A   Clear
9:00 AM 48 °F - 17 °F 16%  in 6 mi ENE 1.2 mph - -   Clear
9:00 AM 48.2 °F - 15.8 °F 27% 30.04 in - Variable 1.2 mph - N/A   Clear
10:00 AM 53.6 °F - 19.4 °F 26% 30.04 in - Variable 3.5 mph - N/A   Clear
11:00 AM 62.6 °F - 23.0 °F 22% 30.01 in - SE 8.1 mph - N/A   Clear
12:00 PM 64 °F - 24 °F 12%  in 6 mi SSE 13.8 mph - -   Scattered Clouds
12:00 PM 64.4 °F - 24.8 °F 22% 29.98 in 6.2 mi SSE 13.8 mph - N/A   Partly Cloudy
1:00 PM 66.2 °F - 23.0 °F 19% 29.95 in 6.2 mi SSE 11.5 mph - N/A   Scattered Clouds
2:00 PM 64.4 °F - 21.2 °F 19% 29.92 in 6.2 mi SE 13.8 mph - N/A   Scattered Clouds
3:00 PM 66 °F - 21 °F 9%  in 12 mi SSE 12.7 mph - -   Partly Cloudy
3:00 PM 66.2 °F - 21.2 °F 18% 29.89 in 6.2 mi SSE 12.7 mph - N/A   Scattered Clouds
4:00 PM 66.2 °F - 19.4 °F 17% 29.89 in 6.2 mi SE 11.5 mph - N/A   Scattered Clouds
5:00 PM 66.2 °F - 19.4 °F 17% 29.86 in 6.2 mi South 10.4 mph - N/A   Scattered Clouds
6:00 PM 65 °F - 20 °F 9%  in 12 mi SSE 9.2 mph - -   Scattered Clouds
6:00 PM 64.4 °F - 21.2 °F 19% 29.86 in 6.2 mi SSE 9.2 mph - N/A   Partly Cloudy
7:00 PM 64.4 °F - 21.2 °F 19% 29.86 in 6.2 mi SE 8.1 mph - N/A   Partly Cloudy
8:00 PM 62.6 °F - 19.4 °F 19% 29.89 in 6.2 mi SE 8.1 mph - N/A   Partly Cloudy
9:00 PM 60 °F - 20 °F 11%  in 12 mi ESE 5.8 mph - -   Scattered Clouds
9:00 PM 60.8 °F - 19.4 °F 20% 29.89 in 6.2 mi ESE 5.8 mph - N/A   Partly Cloudy
10:00 PM 57.2 °F - 19.4 °F 23% 29.89 in 6.2 mi East 3.5 mph - N/A   Partly Cloudy
11:00 PM 53.6 °F - 19.4 °F 26% 29.92 in 6.2 mi Variable 2.3 mph - N/A   Partly Cloudy